Regional Weather Roundup
Issued by NWS

Home | Current Version | Previous Version | Graphics & Text | Print | Product List | Glossary On
Versions: 1 2 3 4 5 6 7 8 9 10 11 12 13 14 15 16 17 18 19 20 21 22 23 24 25 26 27
000
ASUS45 KTFX 080410
RWRMT
MONTANA REGIONAL WEATHER ROUNDUP
NATIONAL WEATHER SERVICE GREAT FALLS MT
900 PM MST WED DEC 07 2016

NOTE: "FAIR" INDICATES FEW OR NO CLOUDS BELOW 12000 FEET WITH NO
SIGNIFICANT WEATHER AND/OR OBSTRUCTIONS TO VISIBILITY.

MTZ001>007-043-080500-
WEST OF THE DIVIDE

CITY           SKY/WX    TMP DP  RH WIND       PRES   REMARKS
KALISPELL      CLEAR      3  -4  72 NW6       30.49S WCI  -8
MISSOULA       CLOUDY    14   3  61 SE6       30.45S WCI   5
BUTTE          CLOUDY     6  -2  69 S7        30.28S WCI  -6
MULLAN PASS    PTCLDY     2  -2  83 SE9G18    30.17S WCI -13
ANACONDA         N/A      3  -2  78 SW3       30.32S
DEER LODGE       N/A      9   1  72 CALM      30.36F
EUREKA           N/A     -9 -13  84 CALM      30.55S
HAMILTON         N/A    N/A N/A N/A CALM      30.40S
LIBBY            N/A     12   3  67 SE6       30.49S WCI   3
PLAINS           N/A     11   1  64 CALM      30.47S
RONAN            N/A      4  -2  76 CALM      30.43S
$$

MTZ008-052>055-080500-
SOUTHWEST MONTANA

CITY           SKY/WX    TMP DP  RH WIND       PRES   REMARKS
BOZEMAN        CLOUDY     7   0  73 CALM      30.40F
DILLON         CLOUDY     4  -3  73 NE6       30.31S WCI  -7
W YELLOWSTONE  CLOUDY   -18 -24  76 CALM      30.25R
ENNIS          CLOUDY     1  -4  78 CALM      30.37S
THREE FORKS      N/A      7 -75   1 NW2       30.36S
TWIN BRIDGES     N/A      6  -6  57 N6        30.28R WCI  -4
$$

MTZ009-010-012-014-046-048-049-054-080500-
EAST SLOPES AND CENTRAL MONTANA

CITY           SKY/WX    TMP DP  RH WIND       PRES   REMARKS
CUT BANK       CLEAR    -12 -17  78 N5        30.51R
GREAT FALLS    CLOUDY     1  -6  72 CALM      30.52S
MALMSTROM AFB  CLOUDY    -1  -5  84 E3        30.55S
HELENA         CLOUDY     5  -3  69 NW5       30.47S
BOWMANS CRNR   FLURRIES  -3  -7  82 NE5       30.42S
CHOTEAU          N/A      0  -8  71 MISG      30.51S
CONRAD           N/A    -12 -17  78 W3        30.48S
FAIRFIELD      FLURRIES  -1  -7  73 NE2       30.49S
POWER          CLOUDY    -3  -8  76 N6        30.50S WCI -15
RAYNESFORD     CLOUDY    -3  -8  77 NE1       30.49S
ULM            CLOUDY    -2  -7  78 SE2G31    30.53S
$$

MTZ011-013-016-021-045-047-050-051-080500-
NORTH CENTRAL MONTANA

CITY           SKY/WX    TMP DP  RH WIND       PRES   REMARKS
HAVRE          PTCLDY    -4 -10  75 W5        30.65R
LEWISTOWN      CLEAR    -10 -15  78 S7        30.46S WCI -25
N BAR RANCH    CLOUDY    -8 -15  71 CALM      30.45R
CHINOOK          N/A     -6 -11  77 W5        30.67S
DENTON           N/A     -6 -11  78 SW13G22   30.50S WCI -25
GEYSER         MOCLDY    -4  -9  79 W7        30.47R WCI -18
JUDITH GAP       N/A    -10 -15  75 N5        30.40S
ROY              N/A     -5 -10  81 MISG      30.51R
WINIFRED         N/A     -4  -8  84 MISG      30.51R
$$

MTZ017>020-022>027-061-062-080500-
NORTHEAST MONTANA

CITY           SKY/WX    TMP DP  RH WIND       PRES   REMARKS
GLASGOW        CLEAR     -3 -10  72 NW9       30.61R WCI -19
JORDAN           N/A     -2  -8  76 NW8       30.60R WCI -17
SIDNEY         CLOUDY     2  -6  69 NW22      30.59R WCI -20
WOLF POINT     CLOUDY     2  -7  66 W12       30.63R WCI -15
PLENTYWOOD       N/A     -6  -9  84 NW14      30.53S WCI -26
POPLAR           N/A      1  -6  71 W8        30.62R WCI -12
SCOBEY           N/A     -6 -17  59 NW10      30.49R WCI -24
$$

MTZ028>42-056>058-080500-
SOUTHCENTRAL AND SOUTHEAST MONTANA

CITY           SKY/WX    TMP DP  RH WIND       PRES   REMARKS
BAKER          CLOUDY     2  -4  76 NW20      30.50S WCI -19
BILLINGS       PTCLDY     4  -5  66 NE6       30.50S WCI  -7
LIVINGSTON     CLOUDY     6  -4  63 CALM      30.38S
MILES CITY     CLEAR     -1  -8  72 NW7       30.61R WCI -14
BIG TIMBER     CLOUDY     3  -4  72 S8        30.43S WCI -10
EKALAKA          N/A     -3 -11  69 W10       30.38R WCI -20
FORSYTH          N/A      3  -6  66 CALM      30.60R
HARLOWTON      CLOUDY    -1  -8  70 N6        30.43S WCI -13
LAUREL           N/A      3 -11  52 CALM      30.42R
$$

REGIONAL REPORTS...DAKOTAS

CITY           SKY/WX    TMP DP  RH WIND       PRES   REMARKS
WILLISTON      CLOUDY     2  -6  69 NW13      30.57R WCI -15
MINOT          FLURRIES   6   1  80 W29G37    30.42R WCI -17
DICKINSON      CLOUDY     0  -6  76 W24G33    30.43R WCI -24
BEACH          CLOUDY     0  -4  85 NW16      30.55R WCI -21
CROSBY         CLOUDY     3   0  85 NW25G31   30.54R WCI -20
TIOGA          LGT SNOW   0   0 100 NW23G30   30.48R WCI -24
WATFORD CITY   CLOUDY     0  -4  85 W14       30.55R WCI -19
BISMARCK       MIX PCPN   4   0  83 W18       30.46R WCI -16
GRAND FORKS    LGT SNOW  20  16  84 NW23      30.20R VSB 1   WCI   3
FARGO          LGT SNOW  19  14  81 NW24G32   30.20R WCI   2
BUFFALO SD       N/A      3  -4  72 NW22      30.40R WCI -19
RAPID CITY     CLEAR      3  -6  66 N13       30.46R WCI -14
$$

REGIONAL REPORTS...WYOMING/IDAHO/WASHINGTON

CITY           SKY/WX    TMP DP  RH WIND       PRES   REMARKS
GILLETTE       CLOUDY    -6 -10  83 W13       30.43R WCI -25
SHERIDAN       CLOUDY    -7 -13  75 CALM      30.48R
BUFFALO WY     CLOUDY    -3 -12  65 W7        30.39R WCI -16
CODY           CLOUDY    -8 -13  78 S5        30.38R
YELLOWSTONE LA   N/A    -15 -19  82 NW3       30.17R
IDAHO FALLS    CLEAR      6   1  80 N6        30.35R WCI  -4
SALMON         PTCLDY     3   0  85 CALM      30.35R
BOISE          PTCLDY    21  13  71 S9        30.36S WCI  11
SPOKANE        PTCLDY    20  10  65 E8        30.40F WCI  10
$$

REGIONAL REPORTS...ALBERTA

CITY           SKY/WX    TMP DP  RH WIND       PRES   REMARKS
EDMONTON       CLOUDY    -8 -15  71 N5        30.69S
CALGARY        PTCLDY    -9 -15  77 NE3       30.53R
LETHBRIDGE     CLEAR    -15 -18  84 SW8       30.60S WCI -32
MEDICINE HAT   CLEAR    -13 -18  77 S5        30.67R
WATERTON GATE    N/A    -27 -33  75 CALM        N/A
CARDSTON         N/A    -18 -24  76 SW2         N/A
MILK RIVER       N/A    -15 -20  76 NW7         N/A  WCI -31
ONEFOUR          N/A    -13 -17  84 W12         N/A  WCI -33
$$

REGIONAL REPORTS...SASKATCHEWAN

CITY           SKY/WX    TMP DP  RH WIND       PRES   REMARKS
SWIFT CURRENT  CLEAR     -8 -11  84 W15       30.53S WCI -29
REGINA         FLURRIES   3  -2  78 NW18      30.54R WCI -17
SASKATOON      CLEAR     -4  -8  84 NW5       30.63R
CYPRESS HILLS    N/A    -11 -17  77 NW10G17     N/A  WCI -30
VAL MARIE        N/A     -6 -11  77 W8          N/A  WCI -21
ASSINIBOIA       N/A     -9 -15  77 NW5         N/A
$$




USA.gov is the U.S. government's official web portal to all federal, state and local government web resources and services.